Check out our new BloomSky Weather System.

Active alerts


No alerts


Thunder radar  blitzortung!


Rain radar more information rain snow radar


Visit our other weather sites:

Template documentation
and downloads

And another site



Weather Underground History page Text

Daily Summary for October 1, 2017 Units:  English    Metric   Both
« Previous Day
Next Day »
Daily Weekly Monthly Yearly Custom
  High: Low: Average:
Temperature: 92.7 °F 64.9 °F 78.5 °F
Dew Point: 73.4 °F 62.6 °F 67.4 °F
Humidity: 93 % 45 % 71 %
Wind Speed: 6.0 mph 0.0 mph 0.7 mph
Wind Gust: 9.0 mph - -
Wind:- - SSE
Pressure: 30.00 in 29.85 in -
Precipitation: 0.00 in    
Historical Graphs
 
 
Tabular Data for October 1, 2017
Time Temperature Dew Point Pressure Wind Wind Speed Wind Gust Humidity Rainfall Rate (Hourly)
00:02 72.7 °F 64.8 °F 30.00 in Calm   1.0 mph 76 % 0.00 in
00:07 72.7 °F 64.8 °F 30.00 in NNW 1.0 mph 2.0 mph 76 % 0.00 in
00:12 72.7 °F 64.8 °F 30.00 in Calm   2.0 mph 76 % 0.00 in
00:18 72.7 °F 64.8 °F 30.00 in Calm   2.0 mph 76 % 0.00 in
00:23 72.5 °F 64.6 °F 30.00 in Calm   2.0 mph 76 % 0.00 in
00:28 72.3 °F 64.8 °F 30.00 in Calm   2.0 mph 77 % 0.00 in
00:33 72.1 °F 64.6 °F 29.99 in Calm   1.0 mph 77 % 0.00 in
00:38 72.0 °F 64.8 °F 29.99 in Calm   1.0 mph 78 % 0.00 in
00:43 72.0 °F 64.8 °F 29.99 in Calm   1.0 mph 78 % 0.00 in
00:48 71.8 °F 64.6 °F 29.99 in Calm   1.0 mph 78 % 0.00 in
00:53 71.4 °F 64.2 °F 29.99 in Calm   1.0 mph 78 % 0.00 in
00:58 71.2 °F 64.4 °F 29.99 in Calm     79 % 0.00 in
01:03 70.9 °F 64.0 °F 29.99 in Calm     79 % 0.00 in
01:08 70.9 °F 64.4 °F 29.99 in Calm     80 % 0.00 in
01:13 70.9 °F 64.4 °F 29.99 in Calm     80 % 0.00 in
01:18 70.9 °F 64.4 °F 29.99 in Calm   1.0 mph 80 % 0.00 in
01:23 70.7 °F 64.2 °F 29.98 in Calm   1.0 mph 80 % 0.00 in
01:28 70.5 °F 64.0 °F 29.98 in Calm   1.0 mph 80 % 0.00 in
01:33 70.5 °F 64.4 °F 29.98 in Calm   1.0 mph 81 % 0.00 in
01:38 70.3 °F 64.2 °F 29.99 in Calm     81 % 0.00 in
01:43 70.2 °F 64.0 °F 29.99 in Calm     81 % 0.00 in
01:48 70.2 °F 64.0 °F 29.99 in Calm   1.0 mph 81 % 0.00 in
01:53 70.0 °F 63.9 °F 29.98 in Calm   1.0 mph 81 % 0.00 in
01:59 69.8 °F 64.0 °F 29.98 in Calm   1.0 mph 82 % 0.00 in
02:04 69.8 °F 64.0 °F 29.98 in Calm   1.0 mph 82 % 0.00 in
02:09 70.0 °F 64.2 °F 29.98 in Calm   1.0 mph 82 % 0.00 in
02:14 70.0 °F 64.2 °F 29.98 in Calm   1.0 mph 82 % 0.00 in
02:19 69.8 °F 64.0 °F 29.98 in Calm   1.0 mph 82 % 0.00 in
02:24 69.8 °F 64.4 °F 29.98 in Calm   1.0 mph 83 % 0.00 in
02:29 69.6 °F 64.2 °F 29.98 in Calm   1.0 mph 83 % 0.00 in
02:34 69.4 °F 64.0 °F 29.98 in Calm   1.0 mph 83 % 0.00 in
02:39 69.3 °F 63.9 °F 29.98 in Calm   1.0 mph 83 % 0.00 in
02:44 69.1 °F 64.0 °F 29.98 in Calm   1.0 mph 84 % 0.00 in
02:49 68.7 °F 63.7 °F 29.97 in Calm   1.0 mph 84 % 0.00 in
02:54 68.5 °F 63.9 °F 29.97 in Calm   1.0 mph 85 % 0.00 in
02:59 68.4 °F 63.7 °F 29.97 in Calm     85 % 0.00 in
03:04 68.2 °F 63.9 °F 29.97 in Calm     86 % 0.00 in
03:09 68.0 °F 63.7 °F 29.96 in Calm     86 % 0.00 in
03:14 67.6 °F 63.7 °F 29.96 in Calm     87 % 0.00 in
03:19 67.8 °F 63.9 °F 29.96 in Calm     87 % 0.00 in
03:24 67.8 °F 63.9 °F 29.96 in Calm     87 % 0.00 in
03:29 67.6 °F 63.7 °F 29.96 in Calm     87 % 0.00 in
03:34 67.5 °F 63.5 °F 29.96 in Calm     87 % 0.00 in
03:39 67.5 °F 63.9 °F 29.96 in Calm     88 % 0.00 in
03:44 67.3 °F 63.7 °F 29.96 in Calm     88 % 0.00 in
03:49 66.9 °F 63.3 °F 29.96 in Calm     88 % 0.00 in
03:54 66.9 °F 63.5 °F 29.95 in Calm     89 % 0.00 in
03:59 66.9 °F 63.5 °F 29.95 in Calm     89 % 0.00 in
04:04 66.7 °F 63.3 °F 29.95 in Calm     89 % 0.00 in
04:09 66.6 °F 63.1 °F 29.95 in Calm     89 % 0.00 in
04:14 66.4 °F 63.3 °F 29.95 in Calm     90 % 0.00 in
04:19 66.4 °F 63.3 °F 29.95 in Calm     90 % 0.00 in
04:24 66.4 °F 63.3 °F 29.95 in Calm     90 % 0.00 in
04:29 66.2 °F 63.1 °F 29.95 in Calm     90 % 0.00 in
04:34 66.0 °F 63.3 °F 29.95 in Calm     91 % 0.00 in
04:39 66.0 °F 63.3 °F 29.95 in Calm     91 % 0.00 in
04:44 65.8 °F 63.1 °F 29.95 in Calm     91 % 0.00 in
04:49 65.8 °F 63.5 °F 29.94 in Calm     92 % 0.00 in
04:54 65.8 °F 63.5 °F 29.94 in Calm     92 % 0.00 in
04:59 65.8 °F 63.5 °F 29.94 in Calm     92 % 0.00 in
05:04 65.8 °F 63.5 °F 29.94 in Calm     92 % 0.00 in
05:09 65.8 °F 63.5 °F 29.94 in Calm     92 % 0.00 in
05:14 66.0 °F 63.7 °F 29.94 in Calm     92 % 0.00 in
05:24 66.0 °F 63.3 °F 29.94 in Calm     91 % 0.00 in
05:29 65.8 °F 63.1 °F 29.94 in Calm     91 % 0.00 in
05:34 65.8 °F 63.5 °F 29.94 in Calm     92 % 0.00 in
05:39 65.8 °F 63.5 °F 29.94 in Calm     92 % 0.00 in
05:44 66.0 °F 63.7 °F 29.94 in Calm     92 % 0.00 in
05:49 66.0 °F 63.3 °F 29.94 in Calm     91 % 0.00 in
05:54 66.0 °F 63.3 °F 29.94 in Calm     91 % 0.00 in
05:59 65.8 °F 63.1 °F 29.94 in Calm     91 % 0.00 in
06:04 65.8 °F 63.1 °F 29.94 in Calm     91 % 0.00 in
06:09 65.7 °F 63.0 °F 29.94 in Calm     91 % 0.00 in
06:14 65.5 °F 62.8 °F 29.93 in Calm     91 % 0.00 in
06:19 65.7 °F 63.3 °F 29.94 in Calm     92 % 0.00 in
06:24 65.7 °F 63.0 °F 29.94 in Calm     91 % 0.00 in
06:29 65.7 °F 63.0 °F 29.94 in Calm     91 % 0.00 in
06:34 65.7 °F 63.0 °F 29.94 in Calm     91 % 0.00 in
06:39 65.7 °F 63.0 °F 29.94 in Calm     91 % 0.00 in
06:44 65.7 °F 63.0 °F 29.94 in Calm     91 % 0.00 in
06:49 65.7 °F 63.0 °F 29.95 in Calm     91 % 0.00 in
06:54 65.7 °F 63.0 °F 29.95 in Calm     91 % 0.00 in
06:59 65.5 °F 62.8 °F 29.95 in Calm   1.0 mph 91 % 0.00 in
07:04 65.3 °F 62.6 °F 29.95 in Calm   1.0 mph 91 % 0.00 in
07:09 65.1 °F 62.8 °F 29.95 in Calm   1.0 mph 92 % 0.00 in
07:14 65.1 °F 62.8 °F 29.95 in Calm     92 % 0.00 in
07:19 64.9 °F 62.6 °F 29.95 in Calm     92 % 0.00 in
07:24 64.9 °F 62.8 °F 29.96 in Calm     93 % 0.00 in
07:29 65.1 °F 62.8 °F 29.96 in Calm   1.0 mph 92 % 0.00 in
07:34 65.5 °F 63.1 °F 29.96 in Calm   1.0 mph 92 % 0.00 in
07:39 65.5 °F 63.1 °F 29.96 in Calm   1.0 mph 92 % 0.00 in
07:44 65.7 °F 63.0 °F 29.96 in Calm   1.0 mph 91 % 0.00 in
07:49 65.8 °F 63.1 °F 29.96 in Calm   1.0 mph 91 % 0.00 in
07:54 66.0 °F 63.3 °F 29.96 in Calm   1.0 mph 91 % 0.00 in
08:00 66.6 °F 63.5 °F 29.96 in Calm   1.0 mph 90 % 0.00 in
08:05 67.3 °F 63.9 °F 29.96 in Calm   1.0 mph 89 % 0.00 in
08:10 67.8 °F 64.2 °F 29.96 in Calm   1.0 mph 88 % 0.00 in
08:15 68.4 °F 64.4 °F 29.96 in Calm   1.0 mph 87 % 0.00 in
08:20 69.3 °F 64.6 °F 29.96 in Calm   2.0 mph 85 % 0.00 in
08:25 69.8 °F 64.4 °F 29.96 in NNW 1.0 mph 2.0 mph 83 % 0.00 in
08:30 70.5 °F 64.8 °F 29.96 in Calm   2.0 mph 82 % 0.00 in
08:35 71.2 °F 64.4 °F 29.97 in North 1.0 mph 2.0 mph 79 % 0.00 in
08:40 71.6 °F 64.4 °F 29.97 in NNW 1.0 mph 5.0 mph 78 % 0.00 in
08:45 72.0 °F 64.0 °F 29.97 in NW 1.0 mph 5.0 mph 76 % 0.00 in
08:50 72.3 °F 64.4 °F 29.97 in ENE 1.0 mph 5.0 mph 76 % 0.00 in
08:55 72.5 °F 63.7 °F 29.97 in North 1.0 mph 4.0 mph 74 % 0.00 in
09:00 72.9 °F 64.0 °F 29.97 in Calm   4.0 mph 74 % 0.00 in
09:05 73.0 °F 64.6 °F 29.97 in North 1.0 mph 5.0 mph 75 % 0.00 in
09:10 73.9 °F 65.1 °F 29.98 in NE 1.0 mph 5.0 mph 74 % 0.00 in
09:15 74.1 °F 64.9 °F 29.98 in ENE 1.0 mph 5.0 mph 73 % 0.00 in
09:20 74.5 °F 65.3 °F 29.98 in ENE 1.0 mph 4.0 mph 73 % 0.00 in
09:21 74.5 °F 65.3 °F 29.98 in Calm   4.0 mph 73 % 0.00 in
09:26 75.0 °F 65.3 °F 29.98 in NNW 3.0 mph 4.0 mph 72 % 0.00 in
09:31 75.6 °F 66.4 °F 29.98 in ENE 2.0 mph 3.0 mph 73 % 0.00 in
09:36 75.9 °F 66.2 °F 29.97 in NE 1.0 mph 4.0 mph 72 % 0.00 in
09:41 76.8 °F 66.2 °F 29.98 in East 1.0 mph 4.0 mph 70 % 0.00 in
09:46 77.2 °F 66.6 °F 29.98 in ENE 4.0 mph 4.0 mph 70 % 0.00 in
09:52 76.8 °F 66.2 °F 29.97 in Calm   4.0 mph 70 % 0.00 in
09:57 77.5 °F 67.5 °F 29.98 in SE 1.0 mph 4.0 mph 71 % 0.00 in
10:02 78.3 °F 67.6 °F 29.98 in ENE 3.0 mph 4.0 mph 70 % 0.00 in
10:07 78.6 °F 67.6 °F 29.97 in NE 1.0 mph 3.0 mph 69 % 0.00 in
10:12 79.0 °F 67.5 °F 29.97 in NE 2.0 mph 4.0 mph 68 % 0.00 in
10:17 79.3 °F 68.7 °F 29.97 in North 2.0 mph 5.0 mph 70 % 0.00 in
10:22 79.9 °F 68.4 °F 29.97 in Calm   5.0 mph 68 % 0.00 in
10:27 80.8 °F 68.4 °F 29.98 in Calm   5.0 mph 66 % 0.00 in
10:32 80.8 °F 68.7 °F 29.97 in SSW 2.0 mph 3.0 mph 67 % 0.00 in
10:37 81.3 °F 69.8 °F 29.98 in Calm   3.0 mph 68 % 0.00 in
10:42 82.0 °F 68.7 °F 29.98 in ENE 1.0 mph 3.0 mph 64 % 0.00 in
10:47 82.0 °F 69.1 °F 29.98 in SW 1.0 mph 3.0 mph 65 % 0.00 in
10:52 82.9 °F 70.9 °F 29.98 in Calm   3.0 mph 67 % 0.00 in
10:57 83.5 °F 70.0 °F 29.98 in Calm   3.0 mph 64 % 0.00 in
11:02 83.5 °F 70.0 °F 29.98 in SSE 2.0 mph 4.0 mph 64 % 0.00 in
11:07 83.8 °F 70.9 °F 29.98 in Calm   4.0 mph 65 % 0.00 in
11:12 84.4 °F 69.4 °F 29.98 in ENE 2.0 mph 4.0 mph 61 % 0.00 in
11:17 84.4 °F 69.4 °F 29.98 in NNW 2.0 mph 3.0 mph 61 % 0.00 in
11:22 84.4 °F 70.9 °F 29.98 in West 1.0 mph 3.0 mph 64 % 0.00 in
11:27 84.6 °F 69.6 °F 29.97 in Calm   3.0 mph 61 % 0.00 in
11:32 84.9 °F 70.5 °F 29.97 in NNE 1.0 mph 3.0 mph 62 % 0.00 in
11:37 85.5 °F 70.9 °F 29.97 in North 1.0 mph 3.0 mph 62 % 0.00 in
11:42 85.8 °F 69.8 °F 29.97 in SE 1.0 mph 3.0 mph 59 % 0.00 in
11:47 85.6 °F 70.2 °F 29.97 in SE 3.0 mph 5.0 mph 60 % 0.00 in
11:52 85.6 °F 69.6 °F 29.97 in ESE 4.0 mph 5.0 mph 59 % 0.00 in
11:57 86.4 °F 69.8 °F 29.97 in NNW 1.0 mph 5.0 mph 58 % 0.00 in
12:02 87.1 °F 71.1 °F 29.97 in SSE 1.0 mph 4.0 mph 59 % 0.00 in
12:07 88.0 °F 70.9 °F 29.97 in SSW 1.0 mph 4.0 mph 57 % 0.00 in
12:12 88.9 °F 71.6 °F 29.97 in NNW 1.0 mph 3.0 mph 57 % 0.00 in
12:17 88.9 °F 70.2 °F 29.97 in East 1.0 mph 4.0 mph 54 % 0.00 in
12:22 88.5 °F 70.3 °F 29.96 in WNW 1.0 mph 4.0 mph 55 % 0.00 in
12:27 88.2 °F 70.0 °F 29.96 in East 2.0 mph 5.0 mph 55 % 0.00 in
12:32 88.2 °F 70.5 °F 29.96 in East 4.0 mph 5.0 mph 56 % 0.00 in
12:37 88.5 °F 69.8 °F 29.96 in ENE 1.0 mph 5.0 mph 54 % 0.00 in
12:42 88.9 °F 69.6 °F 29.95 in SE 1.0 mph 4.0 mph 53 % 0.00 in
12:47 89.4 °F 69.4 °F 29.95 in SSE 2.0 mph 4.0 mph 52 % 0.00 in
12:52 89.6 °F 70.2 °F 29.95 in SSW 1.0 mph 4.0 mph 53 % 0.00 in
12:57 89.6 °F 69.1 °F 29.94 in SE 3.0 mph 6.0 mph 51 % 0.00 in
13:02 89.6 °F 70.2 °F 29.94 in SSE 3.0 mph 6.0 mph 53 % 0.00 in
13:07 89.6 °F 69.1 °F 29.94 in Calm   7.0 mph 51 % 0.00 in
13:12 89.8 °F 69.3 °F 29.94 in WNW 1.0 mph 7.0 mph 51 % 0.00 in
13:17 88.9 °F 68.9 °F 29.94 in NW 1.0 mph 7.0 mph 52 % 0.00 in
13:22 88.5 °F 69.3 °F 29.93 in WNW 1.0 mph 5.0 mph 53 % 0.00 in
13:27 88.5 °F 69.3 °F 29.93 in NNW 3.0 mph 5.0 mph 53 % 0.00 in
13:32 89.2 °F 69.8 °F 29.92 in SE 1.0 mph 4.0 mph 53 % 0.00 in
13:37 90.0 °F 69.4 °F 29.92 in SSW 2.0 mph 5.0 mph 51 % 0.00 in
13:42 90.0 °F 70.5 °F 29.92 in SW 2.0 mph 5.0 mph 53 % 0.00 in
13:47 90.1 °F 70.2 °F 29.91 in South 2.0 mph 6.0 mph 52 % 0.00 in
13:52 90.1 °F 70.2 °F 29.91 in Calm   6.0 mph 52 % 0.00 in
13:57 90.1 °F 68.4 °F 29.91 in SE 2.0 mph 6.0 mph 49 % 0.00 in
14:02 90.0 °F 68.2 °F 29.91 in ENE 4.0 mph 6.0 mph 49 % 0.00 in
14:07 88.9 °F 67.8 °F 29.91 in SE 3.0 mph 6.0 mph 50 % 0.00 in
14:12 88.9 °F 68.9 °F 29.90 in NW 2.0 mph 6.0 mph 52 % 0.00 in
14:17 89.6 °F 68.5 °F 29.90 in ESE 6.0 mph 6.0 mph 50 % 0.00 in
14:22 90.0 °F 70.0 °F 29.90 in South 3.0 mph 9.0 mph 52 % 0.00 in
14:27 90.1 °F 68.4 °F 29.89 in SE 5.0 mph 9.0 mph 49 % 0.00 in
14:32 90.3 °F 69.8 °F 29.89 in South 1.0 mph 9.0 mph 51 % 0.00 in
14:37 91.2 °F 68.7 °F 29.89 in SSW 2.0 mph 8.0 mph 48 % 0.00 in
14:42 91.8 °F 69.3 °F 29.89 in SSE 5.0 mph 8.0 mph 48 % 0.00 in
14:47 91.6 °F 69.8 °F 29.89 in East 1.0 mph 6.0 mph 49 % 0.00 in
14:52 91.8 °F 69.3 °F 29.88 in SE 3.0 mph 6.0 mph 48 % 0.00 in
15:02 92.5 °F 70.5 °F 29.88 in South 1.0 mph 6.0 mph 49 % 0.00 in
15:07 92.7 °F 69.4 °F 29.88 in SE 3.0 mph 6.0 mph 47 % 0.00 in
15:12 91.8 °F 68.0 °F 29.88 in ENE 2.0 mph 8.0 mph 46 % 0.00 in
15:17 91.4 °F 68.9 °F 29.88 in SSE 3.0 mph 8.0 mph 48 % 0.00 in
15:22 91.8 °F 69.3 °F 29.88 in SSE 2.0 mph 8.0 mph 48 % 0.00 in
15:27 92.1 °F 67.6 °F 29.88 in Calm   5.0 mph 45 % 0.00 in
15:32 92.3 °F 68.5 °F 29.87 in Calm   4.0 mph 46 % 0.00 in
15:37 91.9 °F 69.4 °F 29.87 in Calm   4.0 mph 48 % 0.00 in
15:42 91.6 °F 68.5 °F 29.87 in NE 1.0 mph 4.0 mph 47 % 0.00 in
15:47 90.3 °F 68.0 °F 29.87 in NW 1.0 mph 5.0 mph 48 % 0.00 in
15:52 89.8 °F 68.0 °F 29.87 in Calm   5.0 mph 49 % 0.00 in
15:57 90.0 °F 69.4 °F 29.86 in SW 1.0 mph 5.0 mph 51 % 0.00 in
16:02 90.1 °F 68.9 °F 29.87 in SW 3.0 mph 4.0 mph 50 % 0.00 in
16:07 89.8 °F 69.3 °F 29.86 in SSE 2.0 mph 4.0 mph 51 % 0.00 in
16:12 89.2 °F 68.2 °F 29.86 in South 1.0 mph 4.0 mph 50 % 0.00 in
16:17 89.6 °F 69.6 °F 29.86 in Calm   4.0 mph 52 % 0.00 in
16:22 90.3 °F 69.1 °F 29.86 in Calm   3.0 mph 50 % 0.00 in
16:27 90.7 °F 68.9 °F 29.86 in Calm   3.0 mph 49 % 0.00 in
16:32 90.7 °F 69.4 °F 29.86 in SSE 2.0 mph 3.0 mph 50 % 0.00 in
16:37 90.7 °F 68.9 °F 29.86 in Calm   5.0 mph 49 % 0.00 in
16:42 90.7 °F 67.6 °F 29.86 in East 1.0 mph 5.0 mph 47 % 0.00 in
16:43 90.5 °F 68.2 °F 29.86 in North 1.0 mph 5.0 mph 48 % 0.00 in
16:48 90.1 °F 67.8 °F 29.86 in Calm   5.0 mph 48 % 0.00 in
16:50 90.3 °F 68.5 °F 29.86 in Calm   4.0 mph 49 % 0.00 in
16:55 90.3 °F 68.5 °F 29.86 in SE 4.0 mph 6.0 mph 49 % 0.00 in
17:00 90.0 °F 68.2 °F 29.86 in ESE 2.0 mph 6.0 mph 49 % 0.00 in
17:05 89.6 °F 67.8 °F 29.85 in Calm   6.0 mph 49 % 0.00 in
17:10 89.4 °F 68.4 °F 29.85 in Calm   5.0 mph 50 % 0.00 in
17:15 90.0 °F 68.9 °F 29.85 in Calm   5.0 mph 50 % 0.00 in
17:20 90.3 °F 68.5 °F 29.85 in Calm   3.0 mph 49 % 0.00 in
17:25 90.1 °F 68.4 °F 29.85 in East 2.0 mph 3.0 mph 49 % 0.00 in
17:30 90.0 °F 68.9 °F 29.85 in ESE 2.0 mph 4.0 mph 50 % 0.00 in
17:35 90.0 °F 68.2 °F 29.85 in SSE 3.0 mph 4.0 mph 49 % 0.00 in
17:40 89.6 °F 69.1 °F 29.85 in ESE 3.0 mph 6.0 mph 51 % 0.00 in
17:45 89.1 °F 68.5 °F 29.85 in ESE 3.0 mph 6.0 mph 51 % 0.00 in
17:50 88.5 °F 68.7 °F 29.85 in ESE 3.0 mph 6.0 mph 52 % 0.00 in
17:55 88.2 °F 68.4 °F 29.85 in Calm   6.0 mph 52 % 0.00 in
18:00 88.0 °F 68.7 °F 29.85 in South 3.0 mph 4.0 mph 53 % 0.00 in
18:05 88.0 °F 68.7 °F 29.85 in East 2.0 mph 4.0 mph 53 % 0.00 in
18:10 87.6 °F 68.9 °F 29.85 in Calm   6.0 mph 54 % 0.00 in
18:15 87.4 °F 68.7 °F 29.85 in Calm   6.0 mph 54 % 0.00 in
18:20 87.4 °F 68.7 °F 29.85 in ESE 1.0 mph 6.0 mph 54 % 0.00 in
18:25 87.3 °F 69.1 °F 29.85 in Calm   5.0 mph 55 % 0.00 in
18:30 87.1 °F 68.9 °F 29.85 in ESE 3.0 mph 4.0 mph 55 % 0.00 in
18:35 86.7 °F 68.5 °F 29.85 in East 2.0 mph 4.0 mph 55 % 0.00 in
18:40 86.5 °F 68.9 °F 29.85 in Calm   4.0 mph 56 % 0.00 in
18:45 86.4 °F 68.7 °F 29.85 in SE 1.0 mph 4.0 mph 56 % 0.00 in
18:50 86.0 °F 68.9 °F 29.85 in East 2.0 mph 3.0 mph 57 % 0.00 in
18:55 85.6 °F 68.7 °F 29.85 in ENE 2.0 mph 3.0 mph 57 % 0.00 in
19:00 85.5 °F 69.1 °F 29.85 in Calm   3.0 mph 58 % 0.00 in
19:01 85.5 °F 69.1 °F 29.85 in Calm   3.0 mph 58 % 0.00 in
19:06 85.1 °F 68.7 °F 29.85 in Calm   3.0 mph 58 % 0.00 in
19:11 84.7 °F 68.9 °F 29.86 in Calm   3.0 mph 59 % 0.00 in
19:16 84.6 °F 69.1 °F 29.86 in Calm   3.0 mph 60 % 0.00 in
19:21 84.2 °F 68.7 °F 29.86 in Calm   2.0 mph 60 % 0.00 in
19:26 83.8 °F 68.9 °F 29.86 in Calm   2.0 mph 61 % 0.00 in
19:31 83.5 °F 69.1 °F 29.86 in Calm   2.0 mph 62 % 0.00 in
19:36 83.1 °F 69.3 °F 29.86 in Calm   1.0 mph 63 % 0.00 in
19:41 82.9 °F 69.1 °F 29.86 in Calm   1.0 mph 63 % 0.00 in
19:46 82.8 °F 69.3 °F 29.86 in Calm   1.0 mph 64 % 0.00 in
19:51 82.6 °F 69.6 °F 29.86 in East 1.0 mph 2.0 mph 65 % 0.00 in
19:56 82.6 °F 69.6 °F 29.86 in Calm   2.0 mph 65 % 0.00 in
20:01 82.2 °F 69.3 °F 29.86 in ESE 1.0 mph 2.0 mph 65 % 0.00 in
20:06 82.2 °F 69.8 °F 29.86 in Calm   2.0 mph 66 % 0.00 in
20:11 82.0 °F 69.6 °F 29.86 in ESE 1.0 mph 2.0 mph 66 % 0.00 in
20:16 82.0 °F 69.6 °F 29.87 in Calm   3.0 mph 66 % 0.00 in
20:21 82.0 °F 70.0 °F 29.87 in ESE 1.0 mph 3.0 mph 67 % 0.00 in
20:26 82.0 °F 70.0 °F 29.87 in Calm   4.0 mph 67 % 0.00 in
20:31 81.9 °F 70.3 °F 29.87 in Calm   4.0 mph 68 % 0.00 in
20:36 81.7 °F 70.2 °F 29.87 in East 1.0 mph 4.0 mph 68 % 0.00 in
20:41 81.5 °F 70.3 °F 29.88 in Calm   2.0 mph 69 % 0.00 in
20:46 81.1 °F 70.0 °F 29.88 in Calm   2.0 mph 69 % 0.00 in
20:51 81.0 °F 70.7 °F 29.88 in Calm   1.0 mph 71 % 0.00 in
20:56 80.8 °F 70.5 °F 29.88 in Calm   1.0 mph 71 % 0.00 in
21:01 80.4 °F 70.5 °F 29.88 in East 1.0 mph 1.0 mph 72 % 0.00 in
21:06 80.4 °F 70.9 °F 29.88 in Calm   1.0 mph 73 % 0.00 in
21:11 80.2 °F 70.9 °F 29.88 in ESE 1.0 mph 1.0 mph 73 % 0.00 in
21:16 80.2 °F 71.2 °F 29.88 in SE 1.0 mph 2.0 mph 74 % 0.00 in
21:21 80.2 °F 71.2 °F 29.88 in Calm   3.0 mph 74 % 0.00 in
21:26 80.2 °F 71.6 °F 29.88 in East 2.0 mph 3.0 mph 75 % 0.00 in
21:31 80.2 °F 71.6 °F 29.88 in Calm   3.0 mph 75 % 0.00 in
21:36 80.1 °F 71.8 °F 29.88 in South 2.0 mph 3.0 mph 76 % 0.00 in
21:41 80.1 °F 71.8 °F 29.89 in ENE 2.0 mph 3.0 mph 76 % 0.00 in
21:47 80.1 °F 72.1 °F 29.89 in Calm   5.0 mph 77 % 0.00 in
21:52 80.1 °F 72.1 °F 29.89 in East 2.0 mph 5.0 mph 77 % 0.00 in
21:57 80.1 °F 72.5 °F 29.89 in Calm   5.0 mph 78 % 0.00 in
22:02 79.9 °F 72.9 °F 29.89 in Calm   3.0 mph 79 % 0.00 in
22:07 79.7 °F 72.7 °F 29.89 in Calm   3.0 mph 79 % 0.00 in
22:12 79.5 °F 72.9 °F 29.89 in Calm   3.0 mph 80 % 0.00 in
22:17 79.3 °F 72.7 °F 29.89 in Calm   3.0 mph 80 % 0.00 in
22:22 79.3 °F 72.7 °F 29.89 in Calm   3.0 mph 80 % 0.00 in
22:24 79.3 °F 72.7 °F 29.89 in Calm   3.0 mph 80 % 0.00 in
22:27 79.2 °F 72.9 °F 29.89 in Calm   2.0 mph 81 % 0.00 in
22:32 79.0 °F 72.7 °F 29.89 in Calm   2.0 mph 81 % 0.00 in
22:37 78.8 °F 72.5 °F 29.89 in Calm   2.0 mph 81 % 0.00 in
22:42 78.6 °F 72.7 °F 29.89 in Calm   1.0 mph 82 % 0.00 in
22:47 78.4 °F 72.9 °F 29.89 in Calm   1.0 mph 83 % 0.00 in
22:52 78.3 °F 72.7 °F 29.89 in Calm   2.0 mph 83 % 0.00 in
22:57 78.1 °F 72.9 °F 29.89 in Calm   2.0 mph 84 % 0.00 in
23:02 77.9 °F 72.7 °F 29.89 in Calm   2.0 mph 84 % 0.00 in
23:07 77.7 °F 72.9 °F 29.89 in SE 1.0 mph 1.0 mph 85 % 0.00 in
23:12 77.7 °F 72.9 °F 29.89 in Calm   1.0 mph 85 % 0.00 in
23:17 77.5 °F 73.0 °F 29.89 in Calm   1.0 mph 86 % 0.00 in
23:27 77.4 °F 73.2 °F 29.89 in Calm   2.0 mph 87 % 0.00 in
23:32 77.4 °F 73.2 °F 29.89 in Calm   2.0 mph 87 % 0.00 in
23:37 77.2 °F 73.4 °F 29.89 in Calm   2.0 mph 88 % 0.00 in
23:42 77.0 °F 73.2 °F 29.90 in Calm   2.0 mph 88 % 0.00 in
23:47 76.8 °F 73.4 °F 29.90 in Calm   1.0 mph 89 % 0.00 in
23:52 76.6 °F 73.2 °F 29.90 in Calm   1.0 mph 89 % 0.00 in
23:57 76.5 °F 73.0 °F 29.90 in Calm   1.0 mph 89 % 0.00 in
Spring, Texas: Villages of Bridgestone
Compliments of Weather Underground - 2.75 mb

Script developed by  Jim McMurry - jmcmurry@mwt.net Adapted for the template by  Wim van der Kuil - Leuven-Template.eu

You find our weather info also at:

UK Metoffice

WeatherCloud

Weather Underground

Mid-South Weather Network

AWEKAS

Citizen Weather Observer Program (CWOP)

HAMweather, WeatherForYou, PWS Weather

Equipment we use:

Weather-station
Davis Vantage Vue

Weather-program
Meteohub

Weather-server
Debian 7.9 x86 (Guest)

Provider
DreamHost

Davis Vantage Vue

Meteohub

Debian 7.9 x86 (Guest)

DreamHost